User: anonymous   Login
Location: Oshawa
(43.9000°N, 78.8670°W)
Time: 06:52:11
(UTC-04:00)
Language:

Hubble Space Telescope - Orbit

View from above orbital plane
View from above orbital plane
View from above satellite
View from above satellite

Ground track
Ground track

The orbit data is extracted from the following two-line orbital elements,

1 20580U 90037B   15244.64580824 +.00001240 +00000-0 +67966-4 0  9992
2 20580 028.4711 009.8517 0002850 342.3279 150.6192 15.07656824191273
Epoch (UTC): 01 September 2015 15:29:57
Eccentricity: 0.0002850
inclination: 28.4711°
perigee height: 541 km
apogee height: 545 km
right ascension of ascending node: 9.8517°
argument of perigee: 342.3279°
revolutions per day: 15.07656824
mean anomaly at epoch: 150.6192°
orbit number at epoch: 19127

The dashed part of the orbit path shows where the satellite is in the earth's shadow,  

DLR